Flag for U.S.A. Weather past 2 weeks in Rancho Cucamonga, California, U.S.A.

Now
56 °F

Mostly cloudy.


Feels Like: 54 °F
Forecast: 53 / 63 °F
Wind: 7 mph from West

Location: Ontario International Airport

Current Time: May 22, 2015 at 6:56:03 AM

Latest Report: May 22, 2015 at 5:53 AM


Visibility: 10 mi

Pressure: 29.96 "Hg

Humidity: 75%

Dew point: 48 °F

Location of Rancho CucamongaLocation

Historic Weather in Rancho Cucamonga — Graph

°F

Rancho Cucamonga temperature yesterday

Maximum temperature yesterday: 68 °F (at 3:53 PM)
Minimum temperature yesterday: 57 °F (at 2:53 AM)
Average temperature yesterday: 61 °F

Past Weeks' High & Low Weather Summary

 TemperatureHumidityPressure
High85 °F (May 11, 1:53 PM)93% (May 8, 12:53 AM)30.06 "Hg (May 8, 12:53 AM)
Low47 °F (May 8, 3:53 AM)22% (May 11, 2:53 PM)29.76 "Hg (May 11, 4:53 PM)
Average61 °F65%29.93 "Hg
* Reported May 7 4:00 AM — May 22 4:53 AM, Rancho Cucamonga, Weather by CustomWeather, © 2015

Note: Actual official high and low records may vary slightly from our data, if they occured in-between our weather recording intervals... More about our weather records

Advertising

Rancho Cucamonga weather history for previous 24 hours

 ConditionsComfort  
Time TempWeatherWind HumidityBarometerVisibility
4:53 AM
Fri, May 22
55 °FMostly cloudy.7 mph77%29.96 "Hg10 mi
3:53 AM55 °FPartly cloudy.6 mph72%29.95 "Hg10 mi
2:53 AM55 °FPassing clouds.6 mph72%29.95 "Hg10 mi
1:53 AM56 °FOvercast.12 mph67%29.96 "Hg10 mi
12:53 AM57 °FPassing clouds.10 mph60%29.96 "Hg10 mi
11:53 PM
Thu, May 21
57 °FPassing clouds.10 mph64%29.96 "Hg10 mi
10:53 PM58 °FPartly cloudy.9 mph62%29.96 "Hg10 mi
9:53 PM59 °FPassing clouds.10 mph69%29.96 "Hg10 mi
8:53 PM59 °FPartly cloudy.13 mph62%29.94 "Hg10 mi
7:53 PM61 °FPartly sunny.14 mph58%29.93 "Hg10 mi
6:53 PM64 °FScattered clouds.13 mph52%29.90 "Hg10 mi
5:53 PM67 °FScattered clouds.13 mph47%29.88 "Hg10 mi
4:53 PM68 °FScattered clouds.14 mph44%29.88 "Hg10 mi
3:53 PM68 °FPartly sunny.14 mph44%29.90 "Hg10 mi
2:53 PM67 °FMore clouds than sun.14 mph45%29.91 "Hg10 mi
1:53 PM67 °FPartly sunny.12 mph45%29.92 "Hg10 mi
12:53 PM67 °FBroken clouds.9 mph45%29.93 "Hg10 mi
11:53 AM65 °FPartly sunny.9 mph51%29.93 "Hg10 mi
10:53 AM63 °FBroken clouds.5 mph56%29.93 "Hg10 mi
9:53 AM61 °FMore clouds than sun.3 mph62%29.93 "Hg10 mi
8:53 AM59 °FMore clouds than sun.7 mph67%29.94 "Hg10 mi
7:53 AM58 °FMore clouds than sun.7 mph70%29.93 "Hg10 mi
6:53 AM58 °FMostly cloudy.5 mph70%29.92 "Hg10 mi
Weather by CustomWeather, © 2015

See weather overviewHow to use our weather pages